Location: Fours
(44.3167°N, 6.7000°E)
Time: 21:44:01
(UTC+00:00)

Cosmos 1605 Rocket - Pass Details

Date: 16 October 2021
Orbit: 945 x 1005 km, 82.9° (Epoch: 29 November)

Event Time Altitude Azimuth Distance (km) Brightness Sun altitude
Rises 18:48:11 0° 179° (S) 3,637 6.9 -22.4°
Reaches altitude 10° 18:50:39 10° 178° (S) 2,703 6.2 -22.8°
Maximum altitude 18:56:49 74° 94° (E) 1,023 3.8 -23.9°
Drops below altitude 10° 19:03:08 10° 12° (NNE) 2,763 6.4 -25.0°
Sets 19:05:41 0° 10° (N) 3,723 7.1 -25.4°
